Lid_Strength_Index
8 12 15 15 14 14 15 16 18 17 15 16 17 16 14 13 13 12 12 12 12 11 10 10 7 3 3 3 3 2 1 1 1 2 2 2 2 1 1 1 1 1 1 1
11 13 12 12 12 14 14 16 18 16 14 15 17 17 16 15 14 12 12 12 12 12 11 11 11 9 4 3 3 2 2 1 1 1 1 1 1 1 1 1 1 1 1 1
12 11 10 12 13 14 15 16 16 16 15 16 18 19 17 16 15 14 13 12 12 11 11 10 11 11 11 7 3 2 2 2 1 1 2 2 2 2 2 1 1 1 1 1
11 9 11 13 14 14 16 13 13 14 16 20 18 24 20 18 17 17 15 14 13 13 12 12 11 11 11 11 8 3 2 2 1 1 1 2 2 3 2 2 1 1 1 1
13 12 12 13 13 12 15 12 13 13 15 17 19 21 21 18 18 17 16 15 15 15 14 13 12 11 11 10 10 6 2 2 1 1 1 1 2 1 2 2 2 2 1 1
11 8 9 10 11 11 11 13 14 14 15 21 20 20 22 19 17 16 15 15 15 15 14 14 13 13 12 11 11 9 5 3 2 1 1 1 2 3 3 3 3 3 2 2
12 12 10 9 12 12 12 15 22 22 24 22 20 20 20 17 16 14 14 13 14 14 13 11 11 12 11 11 10 9 8 8 5 5 5 3 3 3 3 4 4 4 4 5
16 17 12 9 11 13 13 15 19 25 24 21 18 20 19 15 13 12 11 12 13 11 11 12 12 12 12 11 10 10 10 9 9 9 10 10 9 10 10 10 10 9 8 8
16 16 10 9 9 10 13 15 13 17 24 22 19 18 15 14 14 13 13 12 12 12 12 12 13 13 13 13 13 12 11 11 11 10 10 11 12 12 13 12 9 9 8 7
12 16 11 10 9 9 11 11 15 16 23 24 20 18 18 15 15 14 14 13 13 12 13 14 14 14 14 15 14 13 13 13 13 13 12 12 12 12 11 11 11 11 10 10
11 13 14 11 13 14 13 14 13 14 17 22 24 20 16 14 14 14 14 12 12 13 15 16 16 15 15 15 16 16 15 15 15 14 14 14 14 13 13 13 13 12 12 11
10 13 16 15 11 10 10 12 13 16 20 20 19 19 13 13 13 14 14 12 14 15 16 16 17 17 17 16 16 17 16 16 16 15 15 15 15 15 15 15 15 14 14 13
10 17 20 16 13 11 13 11 12 13 13 18 19 19 13 14 14 14 15 16 16 17 17 18 18 19 19 19 18 18 17 17 16 16 16 17 17 16 16 16 16 15 15 15
8 13 16 19 15 13 15 13 12 13 17 17 16 17 15 14 14 15 16 17 18 18 18 18 19 19 19 19 19 19 19 18 18 18 18 18 18 18 18 17 17 17 16 16
10 15 13 15 14 13 14 14 13 14 14 16 16 15 13 12 13 13 15 16 17 18 18 18 19 19 19 19 19 19 19 19 18 19 19 19 18 18 18 18 18 18 17 17
9 14 13 16 13 13 16 14 13 15 14 14 13 14 11 11 13 15 15 16 17 18 18 18 18 19 19 19 20 20 20 19 19 19 19 18 18 18 18 18 18 18 18 17
12 18 17 17 13 14 19 16 14 14 14 14 16 13 11 12 11 13 15 15 16 17 18 19 19 19 20 19 19 20 20 19 19 19 19 19 18 18 18 18 18 18 18 17
16 18 21 21 16 21 15 15 14 13 13 13 13 14 13 14 16 16 16 16 16 17 18 19 19 20 20 19 19 19 19 19 19 20 20 20 18 19 18 18 18 18 17 17
10 14 21 22 24 19 15 16 15 14 15 12 12 13 15 16 16 17 17 18 19 19 19 20 20 20 20 20 19 20 20 20 20 21 21 21 20 20 20 20 20 19 19 19
10 12 15 23 26 25 16 15 13 13 18 15 12 13 15 15 15 15 19 18 19 19 19 20 20 20 21 20 20 21 22 22 23 22 22 22 21 21 21 21 21 19 19 19
21 18 16 25 20 20 15 14 13 20 17 15 14 14 15 14 16 18 18 19 19 20 20 21 21 22 22 21 20 22 23 24 23 22 22 22 22 21 21 21 20 20 20 20
16 18 21 21 19 20 15 13 14 13 15 14 15 14 14 17 18 19 19 19 20 20 20 20 21 22 22 21 21 23 24 23 22 22 22 22 22 21 21 21 21 21 20 21
16 15 17 15 15 15 15 15 15 14 14 15 15 15 15 18 19 20 20 20 20 21 20 20 21 22 23 23 22 23 24 23 23 23 23 22 22 21 21 21 21 21 21 21
16 17 16 16 15 15 12 15 15 16 16 15 15 15 16 18 19 20 21 21 22 23 23 24 23 24 25 24 24 25 24 24 25 25 24 23 23 23 22 21 21 21 21 22
15 16 16 16 16 17 16 15 14 17 18 18 20 19 18 18 18 19 20 22 23 24 25 25 24 25 26 25 26 27 25 24 23 23 23 23 23 23 23 22 22 22 21 20
16 15 15 14 13 14 15 20 19 18 20 19 19 21 21 18 18 19 21 21 22 23 24 24 24 24 25 25 25 25 24 23 23 23 23 23 23 23 23 24 24 21 20 19